ARG1837 SAVC-SABE

Flight info

Callsign ARG1837
Flight time 1h 53m
Altitude 37000
Route GATUD2G GATUD UP664 TRE UT693 BCA UW22 VALOS VALOS9R
Aircraft B738/M-SDE2E3FGHIRWXY/LB1

Departure

Time 2026-04-19 05:42
Airport General Enrique Mosconi International Airport (SAVC)

Arrival

Time 2026-04-19 07:36
Airport Aeroparque Jorge Newbery (SABE)
Time Latitude Longitude Altitude Speed Heading
2026-04-19 05:06 -45.78948 -67.46820 204 ft 0 kts 221°
2026-04-19 05:33 -45.78935 -67.46805 214 ft 4 kts 200°
2026-04-19 05:34 -45.78916 -67.46804 195 ft 4 kts 121°
2026-04-19 05:34 -45.78912 -67.46836 195 ft 4 kts 87°
2026-04-19 05:34 -45.78913 -67.46874 195 ft 3 kts 88°
2026-04-19 05:34 -45.78913 -67.46878 195 ft 0 kts 88°
2026-04-19 05:37 -45.78912 -67.46843 195 ft 7 kts 87°
2026-04-19 05:37 -45.78875 -67.46799 203 ft 8 kts
2026-04-19 05:37 -45.78823 -67.46800 206 ft 7 kts 358°
2026-04-19 05:38 -45.78767 -67.46791 208 ft 10 kts 28°
2026-04-19 05:38 -45.78742 -67.46703 195 ft 10 kts 80°
2026-04-19 05:38 -45.78729 -67.46601 195 ft 12 kts 79°
2026-04-19 05:38 -45.78712 -67.46463 202 ft 17 kts 79°
2026-04-19 05:39 -45.78688 -67.46277 195 ft 21 kts 79°
2026-04-19 05:39 -45.78663 -67.46086 205 ft 18 kts 79°
2026-04-19 05:39 -45.78640 -67.45917 201 ft 17 kts 79°
2026-04-19 05:39 -45.78618 -67.45754 206 ft 16 kts 79°
2026-04-19 05:40 -45.78598 -67.45598 195 ft 16 kts 79°
2026-04-19 05:40 -45.78577 -67.45442 208 ft 16 kts 79°
2026-04-19 05:40 -45.78556 -67.45285 202 ft 16 kts 79°
2026-04-19 05:40 -45.78537 -67.45133 195 ft 15 kts 79°
2026-04-19 05:41 -45.78518 -67.44989 203 ft 14 kts 79°
2026-04-19 05:41 -45.78471 -67.44872 195 ft 14 kts 32°
2026-04-19 05:41 -45.78382 -67.44834 203 ft 13 kts 358°
2026-04-19 05:41 -45.78307 -67.44899 199 ft 18 kts 278°
2026-04-19 05:42 -45.78366 -67.45359 204 ft 83 kts 259°
2026-04-19 05:42 -45.78456 -67.46038 196 ft 126 kts 259°
2026-04-19 05:42 -45.78634 -67.47478 486 ft 154 kts 260°
2026-04-19 05:42 -45.78795 -67.48938 1371 ft 149 kts 256°
2026-04-19 05:43 -45.78934 -67.51054 2035 ft 172 kts 273°
2026-04-19 05:43 -45.78546 -67.52186 2067 ft 210 kts 307°
2026-04-19 05:43 -45.77202 -67.53382 2304 ft 248 kts 329°
2026-04-19 05:43 -45.75390 -67.53834 2557 ft 281 kts
2026-04-19 05:44 -45.73489 -67.53114 3385 ft 292 kts 24°
2026-04-19 05:44 -45.71696 -67.51680 4156 ft 297 kts 30°
2026-04-19 05:44 -45.69919 -67.50112 4966 ft 304 kts 31°
2026-04-19 05:44 -45.68113 -67.48490 5781 ft 309 kts 31°
2026-04-19 05:45 -45.66286 -67.46845 6634 ft 311 kts 31°
2026-04-19 05:45 -45.64437 -67.45197 7412 ft 316 kts 30°
2026-04-19 05:45 -45.62562 -67.43538 8356 ft 316 kts 30°
2026-04-19 05:45 -45.60687 -67.41883 9276 ft 314 kts 30°
2026-04-19 05:46 -45.58845 -67.40263 10074 ft 318 kts 28°
2026-04-19 05:46 -45.56897 -67.38563 10394 ft 341 kts 28°
2026-04-19 05:46 -45.54803 -67.36747 10638 ft 362 kts 28°
2026-04-19 05:46 -45.52614 -67.34848 11131 ft 372 kts 29°
2026-04-19 05:47 -45.50399 -67.32922 11937 ft 374 kts 28°
2026-04-19 05:47 -45.48187 -67.31001 12900 ft 369 kts 29°
2026-04-19 05:47 -45.45981 -67.29088 13648 ft 375 kts 28°
2026-04-19 05:47 -45.43737 -67.27146 14270 ft 379 kts 28°
2026-04-19 05:48 -45.41470 -67.25185 14924 ft 383 kts 28°
2026-04-19 05:48 -45.39173 -67.23208 15590 ft 388 kts 28°
2026-04-19 05:48 -45.36847 -67.21221 16206 ft 391 kts 27°
2026-04-19 05:48 -45.34502 -67.19188 16681 ft 398 kts 28°
2026-04-19 05:49 -45.32112 -67.17152 17185 ft 406 kts 28°
2026-04-19 05:49 -45.29728 -67.14951 18050 ft 408 kts 30°
2026-04-19 05:49 -45.27321 -67.12795 18614 ft 412 kts 27°
2026-04-19 05:49 -45.24829 -67.10708 19151 ft 420 kts 29°
2026-04-19 05:50 -45.22348 -67.08617 19828 ft 416 kts 25°
2026-04-19 05:50 -45.19826 -67.06517 20141 ft 424 kts 27°
2026-04-19 05:50 -45.17284 -67.04350 20648 ft 428 kts 27°
2026-04-19 05:50 -45.14716 -67.02180 21197 ft 431 kts 26°
2026-04-19 05:51 -45.12136 -66.99998 21691 ft 434 kts 26°
2026-04-19 05:51 -45.09530 -66.97795 22156 ft 439 kts 26°
2026-04-19 05:51 -45.06897 -66.95571 22652 ft 443 kts 26°
2026-04-19 05:51 -45.04244 -66.93325 23150 ft 446 kts 26°
2026-04-19 05:52 -45.01568 -66.91057 23592 ft 449 kts 26°
2026-04-19 05:52 -44.98878 -66.88775 23960 ft 452 kts 26°
2026-04-19 05:52 -44.96183 -66.86490 24497 ft 451 kts 26°
2026-04-19 05:52 -44.93496 -66.84212 24999 ft 450 kts 26°
2026-04-19 05:53 -44.90833 -66.81966 25395 ft 454 kts 26°
2026-04-19 05:53 -44.88122 -66.79678 25821 ft 455 kts 26°
2026-04-19 05:53 -44.85395 -66.77380 26193 ft 457 kts 26°
2026-04-19 05:53 -44.82651 -66.75068 26570 ft 460 kts 25°
2026-04-19 05:54 -44.79897 -66.72748 26955 ft 462 kts 25°
2026-04-19 05:54 -44.77133 -66.70423 27363 ft 463 kts 25°
2026-04-19 05:54 -44.74360 -66.68093 27746 ft 465 kts 25°
2026-04-19 05:54 -44.71583 -66.65763 28110 ft 465 kts 25°
2026-04-19 05:55 -44.68799 -66.63429 28482 ft 466 kts 25°
2026-04-19 05:55 -44.66007 -66.61092 28803 ft 469 kts 25°
2026-04-19 05:55 -44.63225 -66.58767 29113 ft 471 kts 25°
2026-04-19 05:55 -44.60405 -66.56413 29431 ft 472 kts 25°
2026-04-19 05:56 -44.57569 -66.54048 29774 ft 474 kts 24°
2026-04-19 05:56 -44.54732 -66.51685 30068 ft 476 kts 24°
2026-04-19 05:56 -44.51881 -66.49312 30306 ft 477 kts 24°
2026-04-19 05:56 -44.49019 -66.46939 30506 ft 479 kts 24°
2026-04-19 05:57 -44.46142 -66.44552 30730 ft 480 kts 24°
2026-04-19 05:57 -44.43272 -66.42170 31074 ft 479 kts 23°
2026-04-19 05:57 -44.40413 -66.39799 31414 ft 478 kts 23°
2026-04-19 05:57 -44.37546 -66.37425 31702 ft 478 kts 23°
2026-04-19 05:58 -44.34686 -66.35061 31952 ft 478 kts 23°
2026-04-19 05:58 -44.31813 -66.32695 32213 ft 479 kts 22°
2026-04-19 05:58 -44.28948 -66.30333 32524 ft 478 kts 22°
2026-04-19 05:58 -44.26119 -66.28003 32797 ft 478 kts 22°
2026-04-19 05:59 -44.23253 -66.25644 33036 ft 479 kts 22°
2026-04-19 05:59 -44.20385 -66.23289 33246 ft 479 kts 22°
2026-04-19 05:59 -44.17506 -66.20928 33458 ft 481 kts 22°
2026-04-19 05:59 -44.14625 -66.18568 33740 ft 480 kts 21°
2026-04-19 06:00 -44.11748 -66.16210 34017 ft 479 kts 21°
2026-04-19 06:00 -44.08874 -66.13856 34258 ft 478 kts 21°
2026-04-19 06:00 -44.06003 -66.11513 34448 ft 479 kts 21°
2026-04-19 06:00 -44.03120 -66.09158 34667 ft 479 kts 21°
2026-04-19 06:01 -44.00252 -66.06816 34915 ft 478 kts 21°
2026-04-19 06:01 -43.97381 -66.04477 35109 ft 478 kts 21°
2026-04-19 06:01 -43.94506 -66.02146 35308 ft 478 kts 21°
2026-04-19 06:01 -43.91639 -65.99818 35557 ft 477 kts 21°
2026-04-19 06:02 -43.88779 -65.97495 35784 ft 476 kts 21°
2026-04-19 06:02 -43.85918 -65.95175 35956 ft 476 kts 21°
2026-04-19 06:02 -43.83057 -65.92861 36147 ft 476 kts 21°
2026-04-19 06:02 -43.80195 -65.90549 36346 ft 476 kts 21°
2026-04-19 06:03 -43.77372 -65.88267 36570 ft 475 kts 21°
2026-04-19 06:03 -43.74519 -65.85966 36674 ft 475 kts 21°
2026-04-19 06:03 -43.71676 -65.83670 36792 ft 470 kts 21°
2026-04-19 06:04 -43.66016 -65.79115 36877 ft 473 kts 21°
2026-04-19 06:04 -43.60286 -65.74524 36889 ft 479 kts 21°
2026-04-19 06:05 -43.54477 -65.69879 36898 ft 486 kts 21°
2026-04-19 06:05 -43.48607 -65.65185 36867 ft 489 kts 21°
2026-04-19 06:06 -43.42721 -65.60485 36867 ft 489 kts 21°
2026-04-19 06:06 -43.36823 -65.55784 36890 ft 489 kts 21°
2026-04-19 06:07 -43.30967 -65.51139 36882 ft 489 kts 20°
2026-04-19 06:07 -43.25070 -65.46470 36855 ft 488 kts 20°
2026-04-19 06:08 -43.19184 -65.41816 36882 ft 489 kts 20°
2026-04-19 06:08 -43.13284 -65.37169 36886 ft 489 kts 20°
2026-04-19 06:09 -43.07385 -65.32528 36890 ft 489 kts 20°
2026-04-19 06:09 -43.01483 -65.27895 36860 ft 488 kts 20°
2026-04-19 06:10 -42.95632 -65.23307 36882 ft 488 kts 20°
2026-04-19 06:10 -42.89733 -65.18700 36894 ft 488 kts 20°
2026-04-19 06:11 -42.83828 -65.14104 36861 ft 488 kts 20°
2026-04-19 06:11 -42.77927 -65.09512 36871 ft 489 kts 20°
2026-04-19 06:12 -42.69064 -65.02634 36897 ft 489 kts 20°
2026-04-19 06:12 -42.63139 -64.98053 36902 ft 490 kts 20°
2026-04-19 06:13 -42.57242 -64.93504 36898 ft 491 kts 20°
2026-04-19 06:13 -42.51303 -64.88926 36893 ft 491 kts 20°
2026-04-19 06:14 -42.45353 -64.84356 36896 ft 490 kts 20°
2026-04-19 06:14 -42.39415 -64.79796 36903 ft 490 kts 20°
2026-04-19 06:15 -42.33481 -64.75254 36898 ft 490 kts 20°
2026-04-19 06:15 -42.27555 -64.70737 36897 ft 488 kts 20°
2026-04-19 06:16 -42.21641 -64.66232 36902 ft 488 kts 20°
2026-04-19 06:16 -42.15724 -64.61722 36866 ft 489 kts 20°
2026-04-19 06:17 -42.09812 -64.57236 36885 ft 487 kts 20°
2026-04-19 06:17 -42.03955 -64.52811 36899 ft 485 kts 20°
2026-04-19 06:18 -41.98067 -64.48360 36908 ft 484 kts 20°
2026-04-19 06:18 -41.92197 -64.43937 36904 ft 483 kts 20°
2026-04-19 06:19 -41.86326 -64.39525 36899 ft 483 kts 19°
2026-04-19 06:19 -41.80505 -64.35154 36870 ft 480 kts 20°
2026-04-19 06:20 -41.74680 -64.30792 36890 ft 479 kts 19°
2026-04-19 06:20 -41.68913 -64.26551 36929 ft 464 kts 17°
2026-04-19 06:21 -41.63283 -64.22177 36889 ft 469 kts 19°
2026-04-19 06:21 -41.60438 -64.20100 36903 ft 457 kts 18°
2026-04-19 06:21 -41.57678 -64.18088 36906 ft 461 kts 20°
2026-04-19 06:22 -41.52039 -64.13929 36905 ft 466 kts 19°
2026-04-19 06:22 -41.46364 -64.09547 36898 ft 476 kts 20°
2026-04-19 06:23 -41.40545 -64.05346 36878 ft 480 kts 20°
2026-04-19 06:23 -41.34668 -64.01172 36930 ft 476 kts 15°
2026-04-19 06:24 -41.28737 -63.97005 36893 ft 486 kts 21°
2026-04-19 06:24 -41.22999 -63.92425 36952 ft 475 kts 21°
2026-04-19 06:25 -41.17229 -63.88226 36794 ft 470 kts 16°
2026-04-19 06:25 -41.14290 -63.86257 36912 ft 477 kts 19°
2026-04-19 06:25 -41.11368 -63.84160 36945 ft 477 kts 19°
2026-04-19 06:26 -41.05566 -63.79804 36934 ft 481 kts 19°
2026-04-19 06:26 -40.99723 -63.75475 36915 ft 482 kts 19°
2026-04-19 06:27 -40.93851 -63.71184 36912 ft 481 kts 19°
2026-04-19 06:27 -40.87987 -63.66925 36912 ft 480 kts 19°
2026-04-19 06:28 -40.82125 -63.62680 36917 ft 480 kts 19°
2026-04-19 06:28 -40.76269 -63.58441 36922 ft 479 kts 18°
2026-04-19 06:29 -40.70457 -63.54246 36921 ft 479 kts 18°
2026-04-19 06:29 -40.64621 -63.50037 36905 ft 477 kts 18°
2026-04-19 06:30 -40.58803 -63.45850 36924 ft 476 kts 18°
2026-04-19 06:30 -40.52985 -63.41682 36918 ft 476 kts 18°
2026-04-19 06:31 -40.48150 -63.38221 36927 ft 475 kts 18°
2026-04-19 06:31 -40.42344 -63.34075 36876 ft 475 kts 18°
2026-04-19 06:32 -40.36546 -63.29937 36925 ft 474 kts 18°
2026-04-19 06:32 -40.30753 -63.25811 36936 ft 474 kts 18°
2026-04-19 06:33 -40.24965 -63.21694 36936 ft 474 kts 18°
2026-04-19 06:33 -40.19165 -63.17588 36927 ft 474 kts 18°
2026-04-19 06:34 -40.13369 -63.13482 36926 ft 473 kts 17°
2026-04-19 06:34 -40.07577 -63.09387 36925 ft 473 kts 17°
2026-04-19 06:35 -40.01785 -63.05306 36931 ft 473 kts 17°
2026-04-19 06:35 -39.96039 -63.01265 36938 ft 472 kts 17°
2026-04-19 06:36 -39.90258 -62.97201 36930 ft 472 kts 17°
2026-04-19 06:36 -39.84474 -62.93143 36935 ft 472 kts 17°
2026-04-19 06:37 -39.78690 -62.89096 36930 ft 472 kts 17°
2026-04-19 06:37 -39.72897 -62.85055 36935 ft 472 kts 17°
2026-04-19 06:38 -39.67110 -62.81021 36919 ft 471 kts 16°
2026-04-19 06:38 -39.61345 -62.77006 36922 ft 470 kts 16°
2026-04-19 06:39 -39.55624 -62.73042 36932 ft 470 kts 16°
2026-04-19 06:39 -39.49860 -62.69046 36933 ft 470 kts 16°
2026-04-19 06:40 -39.44097 -62.65051 36905 ft 469 kts 16°
2026-04-19 06:40 -39.38346 -62.61079 36925 ft 468 kts 16°
2026-04-19 06:41 -39.32602 -62.57123 36931 ft 467 kts 16°
2026-04-19 06:41 -39.26896 -62.53203 36942 ft 467 kts 16°
2026-04-19 06:42 -39.21159 -62.49262 36894 ft 467 kts 15°
2026-04-19 06:42 -39.15424 -62.45329 36934 ft 467 kts 15°
2026-04-19 06:43 -39.09681 -62.41400 36950 ft 468 kts 15°
2026-04-19 06:43 -39.03921 -62.37470 36938 ft 469 kts 15°
2026-04-19 06:44 -38.98152 -62.33535 36943 ft 469 kts 15°
2026-04-19 06:44 -38.92422 -62.29631 36945 ft 468 kts 15°
2026-04-19 06:45 -38.86658 -62.25724 36940 ft 468 kts 15°
2026-04-19 06:45 -38.80884 -62.21812 36918 ft 469 kts 15°
2026-04-19 06:46 -38.75107 -62.17896 36937 ft 469 kts 15°
2026-04-19 06:46 -38.69410 -62.13688 36940 ft 479 kts 23°
2026-04-19 06:47 -38.63995 -62.08724 36954 ft 483 kts 24°
2026-04-19 06:47 -38.58559 -62.03661 36943 ft 483 kts 24°
2026-04-19 06:48 -38.53085 -61.98646 36947 ft 483 kts 24°
2026-04-19 06:48 -38.47595 -61.93678 36943 ft 483 kts 24°
2026-04-19 06:49 -38.42110 -61.88742 36932 ft 482 kts 24°
2026-04-19 06:49 -38.36630 -61.83811 36935 ft 482 kts 24°
2026-04-19 06:50 -38.31179 -61.78919 36939 ft 482 kts 24°
2026-04-19 06:50 -38.25689 -61.73995 36941 ft 483 kts 24°
2026-04-19 06:51 -38.20190 -61.69067 36947 ft 483 kts 24°
2026-04-19 06:51 -38.14701 -61.64166 36927 ft 481 kts 24°
2026-04-19 06:52 -38.09208 -61.59269 36929 ft 482 kts 24°
2026-04-19 06:52 -38.03705 -61.54372 36931 ft 483 kts 24°
2026-04-19 06:53 -37.98230 -61.49507 36920 ft 482 kts 24°
2026-04-19 06:53 -37.92738 -61.44637 36924 ft 481 kts 24°
2026-04-19 06:54 -37.87244 -61.39777 36927 ft 481 kts 24°
2026-04-19 06:54 -37.81747 -61.34925 36920 ft 481 kts 24°
2026-04-19 06:55 -37.76276 -61.30095 36912 ft 482 kts 25°
2026-04-19 06:55 -37.70756 -61.25242 36918 ft 483 kts 25°
2026-04-19 06:56 -37.65225 -61.20366 36942 ft 484 kts 25°
2026-04-19 06:56 -37.59712 -61.15510 36912 ft 483 kts 24°
2026-04-19 06:57 -37.54172 -61.10692 36918 ft 484 kts 24°
2026-04-19 06:57 -37.48630 -61.05871 36908 ft 485 kts 25°
2026-04-19 06:58 -37.43113 -61.01054 36906 ft 485 kts 25°
2026-04-19 06:58 -37.37565 -60.96219 36917 ft 486 kts 25°
2026-04-19 06:59 -37.32000 -60.91388 36915 ft 486 kts 24°
2026-04-19 06:59 -37.26427 -60.86558 36908 ft 486 kts 25°
2026-04-19 07:00 -37.20857 -60.81733 36914 ft 486 kts 24°
2026-04-19 07:00 -37.15283 -60.76915 36910 ft 486 kts 24°
2026-04-19 07:01 -37.09749 -60.72145 36903 ft 485 kts 25°
2026-04-19 07:01 -37.04178 -60.67345 36902 ft 486 kts 25°
2026-04-19 07:02 -36.98596 -60.62544 36912 ft 486 kts 25°
2026-04-19 07:02 -36.93014 -60.57754 36896 ft 487 kts 25°
2026-04-19 07:03 -36.87423 -60.52972 36910 ft 487 kts 25°
2026-04-19 07:03 -36.81866 -60.48087 36916 ft 488 kts 26°
2026-04-19 07:04 -36.76121 -60.43768 36867 ft 487 kts 26°
2026-04-19 07:04 -36.70703 -60.38658 36895 ft 494 kts 28°
2026-04-19 07:05 -36.65069 -60.33781 36908 ft 493 kts 24°
2026-04-19 07:05 -36.59315 -60.29080 36900 ft 496 kts 25°
2026-04-19 07:06 -36.53566 -60.24268 36896 ft 498 kts 25°
2026-04-19 07:06 -36.47825 -60.19425 36893 ft 499 kts 25°
2026-04-19 07:07 -36.42060 -60.14599 36880 ft 502 kts 25°
2026-04-19 07:07 -36.36290 -60.09770 36901 ft 505 kts 25°
2026-04-19 07:08 -36.30467 -60.04889 36899 ft 505 kts 25°
2026-04-19 07:08 -36.24640 -60.00027 36881 ft 505 kts 25°
2026-04-19 07:09 -36.18815 -59.95176 36885 ft 504 kts 25°
2026-04-19 07:09 -36.12989 -59.90328 36889 ft 504 kts 25°
2026-04-19 07:10 -36.07168 -59.85499 36889 ft 502 kts 25°
2026-04-19 07:10 -36.01498 -59.80783 36873 ft 477 kts 25°
2026-04-19 07:11 -35.98787 -59.78525 36880 ft 462 kts 25°
2026-04-19 07:11 -35.96153 -59.76340 36795 ft 451 kts 25°
2026-04-19 07:11 -35.93566 -59.74205 36531 ft 445 kts 25°
2026-04-19 07:11 -35.90995 -59.72091 36074 ft 444 kts 25°
2026-04-19 07:12 -35.88428 -59.69992 35074 ft 456 kts 25°
2026-04-19 07:12 -35.85697 -59.67768 34085 ft 470 kts 26°
2026-04-19 07:12 -35.83013 -59.65566 33582 ft 468 kts 27°
2026-04-19 07:12 -35.80335 -59.63355 33263 ft 460 kts 27°
2026-04-19 07:13 -35.77693 -59.61167 32905 ft 455 kts 27°
2026-04-19 07:13 -35.75078 -59.59006 32453 ft 449 kts 27°
2026-04-19 07:13 -35.72506 -59.56890 31918 ft 440 kts 27°
2026-04-19 07:13 -35.69977 -59.54814 31430 ft 436 kts 27°
2026-04-19 07:14 -35.67437 -59.52738 30930 ft 438 kts 28°
2026-04-19 07:14 -35.64890 -59.50661 30459 ft 440 kts 28°
2026-04-19 07:14 -35.62346 -59.48578 29982 ft 436 kts 29°
2026-04-19 07:14 -35.59858 -59.46464 29415 ft 432 kts 28°
2026-04-19 07:15 -35.57360 -59.44482 28850 ft 423 kts 31°
2026-04-19 07:15 -35.54962 -59.42351 28255 ft 422 kts 27°
2026-04-19 07:15 -35.49980 -59.38649 27284 ft 416 kts 26°
2026-04-19 07:16 -35.47605 -59.36692 26820 ft 406 kts 33°
2026-04-19 07:16 -35.45673 -59.34168 26389 ft 410 kts 54°
2026-04-19 07:16 -35.44335 -59.31137 26055 ft 399 kts 63°
2026-04-19 07:16 -35.43287 -59.28009 25675 ft 392 kts 66°
2026-04-19 07:17 -35.42284 -59.24962 25283 ft 392 kts 65°
2026-04-19 07:17 -35.41258 -59.21836 24963 ft 403 kts 67°
2026-04-19 07:17 -35.40263 -59.18545 24537 ft 421 kts 65°
2026-04-19 07:17 -35.39148 -59.15215 24145 ft 420 kts 65°
2026-04-19 07:18 -35.38037 -59.11934 23727 ft 412 kts 65°
2026-04-19 07:18 -35.36977 -59.08708 23320 ft 404 kts 65°
2026-04-19 07:18 -35.35943 -59.05535 22738 ft 401 kts 65°
2026-04-19 07:18 -35.34892 -59.02327 22006 ft 407 kts 64°
2026-04-19 07:19 -35.33827 -58.99105 21458 ft 408 kts 64°
2026-04-19 07:19 -35.32761 -58.95896 21122 ft 405 kts 64°
2026-04-19 07:19 -35.32060 -58.93792 20862 ft 403 kts 64°
2026-04-19 07:19 -35.30997 -58.90608 20361 ft 404 kts 64°
2026-04-19 07:20 -35.29931 -58.87431 19893 ft 404 kts 63°
2026-04-19 07:20 -35.28519 -58.83220 19268 ft 404 kts 63°
2026-04-19 07:20 -35.27796 -58.81068 18956 ft 405 kts 63°
2026-04-19 07:20 -35.26378 -58.76843 18326 ft 403 kts 63°
2026-04-19 07:21 -35.25661 -58.74714 17918 ft 398 kts 63°
2026-04-19 07:21 -35.24617 -58.71611 17318 ft 391 kts 63°
2026-04-19 07:21 -35.23593 -58.68562 16731 ft 385 kts 63°
2026-04-19 07:21 -35.22582 -58.65563 16149 ft 378 kts 64°
2026-04-19 07:22 -35.21587 -58.62624 15587 ft 371 kts 63°
2026-04-19 07:22 -35.20610 -58.59738 15026 ft 364 kts 64°
2026-04-19 07:22 -35.19651 -58.56904 14478 ft 358 kts 64°
2026-04-19 07:22 -35.18708 -58.54121 13938 ft 351 kts 64°
2026-04-19 07:23 -35.17604 -58.51551 13361 ft 340 kts 49°
2026-04-19 07:23 -35.15929 -58.49535 12770 ft 329 kts 32°
2026-04-19 07:23 -35.14031 -58.48025 12201 ft 323 kts 29°
2026-04-19 07:23 -35.12150 -58.46619 11635 ft 319 kts 28°
2026-04-19 07:24 -35.10261 -58.45225 11070 ft 316 kts 28°
2026-04-19 07:24 -35.08389 -58.43842 10520 ft 313 kts 29°
2026-04-19 07:24 -35.06536 -58.42466 9978 ft 310 kts 29°
2026-04-19 07:24 -35.04703 -58.41096 9406 ft 308 kts 30°
2026-04-19 07:25 -35.02903 -58.39744 9053 ft 297 kts 30°
2026-04-19 07:25 -35.01177 -58.38445 8740 ft 287 kts 30°
2026-04-19 07:25 -34.99508 -58.37188 8475 ft 276 kts 30°
2026-04-19 07:25 -34.97896 -58.35990 8197 ft 267 kts 29°
2026-04-19 07:26 -34.96331 -58.34813 7944 ft 262 kts 30°
2026-04-19 07:26 -34.94792 -58.33649 7690 ft 259 kts 30°
2026-04-19 07:26 -34.93260 -58.32492 7437 ft 258 kts 30°
2026-04-19 07:26 -34.91731 -58.31351 7175 ft 256 kts 29°
2026-04-19 07:27 -34.90214 -58.30213 6920 ft 257 kts 30°
2026-04-19 07:27 -34.88700 -58.29064 6656 ft 256 kts 30°
2026-04-19 07:27 -34.87207 -58.27937 6400 ft 255 kts 29°
2026-04-19 07:27 -34.85687 -58.26794 6068 ft 259 kts 29°
2026-04-19 07:28 -34.84158 -58.25642 5783 ft 258 kts 29°
2026-04-19 07:28 -34.82633 -58.24498 5502 ft 257 kts 29°
2026-04-19 07:28 -34.81114 -58.23364 5235 ft 255 kts 29°
2026-04-19 07:28 -34.79600 -58.22225 5015 ft 254 kts 29°
2026-04-19 07:29 -34.78120 -58.21109 4902 ft 247 kts 29°
2026-04-19 07:29 -34.76682 -58.20030 4798 ft 239 kts 29°
2026-04-19 07:29 -34.75290 -58.18985 4702 ft 231 kts 28°
2026-04-19 07:29 -34.73944 -58.17978 4600 ft 223 kts 28°
2026-04-19 07:30 -34.72642 -58.17005 4517 ft 218 kts 28°
2026-04-19 07:30 -34.71230 -58.16419 4328 ft 215 kts 355°
2026-04-19 07:30 -34.69841 -58.16966 4170 ft 212 kts 323°
2026-04-19 07:30 -34.68843 -58.18277 3950 ft 213 kts 303°
2026-04-19 07:31 -34.68030 -58.19774 3739 ft 212 kts 304°
2026-04-19 07:31 -34.67218 -58.21244 3489 ft 208 kts 304°
2026-04-19 07:31 -34.66427 -58.22677 3247 ft 201 kts 303°
2026-04-19 07:31 -34.65674 -58.24043 3009 ft 189 kts 304°
2026-04-19 07:32 -34.64974 -58.25302 2839 ft 176 kts 305°
2026-04-19 07:32 -34.64292 -58.26494 2653 ft 168 kts 304°
2026-04-19 07:32 -34.63661 -58.27648 2518 ft 162 kts 304°
2026-04-19 07:32 -34.63027 -58.28795 2327 ft 165 kts 304°
2026-04-19 07:33 -34.62387 -58.29953 2113 ft 165 kts 304°
2026-04-19 07:33 -34.61752 -58.31114 1893 ft 164 kts 304°
2026-04-19 07:33 -34.61133 -58.32243 1681 ft 154 kts 305°
2026-04-19 07:33 -34.60554 -58.33310 1469 ft 150 kts 305°
2026-04-19 07:34 -34.59974 -58.34327 1314 ft 139 kts 307°
2026-04-19 07:34 -34.59405 -58.35249 1121 ft 136 kts 309°
2026-04-19 07:34 -34.58912 -58.36200 977 ft 132 kts 301°
2026-04-19 07:34 -34.58422 -58.37155 800 ft 136 kts 305°
2026-04-19 07:35 -34.57878 -58.38120 592 ft 145 kts 305°
2026-04-19 07:35 -34.57305 -58.39115 402 ft 141 kts 305°
2026-04-19 07:35 -34.56768 -58.40074 184 ft 135 kts 304°
2026-04-19 07:35 -34.56247 -58.41009 36 ft 130 kts 304°
2026-04-19 07:36 -34.55810 -58.41789 25 ft 84 kts 304°
2026-04-19 07:36 -34.55592 -58.42175 29 ft 33 kts 304°
2026-04-19 07:36 -34.55487 -58.42364 26 ft 24 kts 304°
2026-04-19 07:36 -34.55419 -58.42483 26 ft 12 kts 304°
2026-04-19 07:37 -34.55363 -58.42457 27 ft 12 kts 81°
2026-04-19 07:37 -34.55379 -58.42362 27 ft 12 kts 117°
2026-04-19 07:37 -34.55425 -58.42285 26 ft 11 kts 127°
2026-04-19 07:37 -34.55472 -58.42210 26 ft 11 kts 127°
2026-04-19 07:38 -34.55517 -58.42138 28 ft 11 kts 127°
2026-04-19 07:38 -34.55560 -58.42069 26 ft 10 kts 127°
2026-04-19 07:38 -34.55601 -58.41999 27 ft 10 kts 125°
2026-04-19 07:38 -34.55639 -58.41930 25 ft 10 kts 124°
2026-04-19 07:39 -34.55688 -58.41843 25 ft 13 kts 123°
2026-04-19 07:39 -34.55736 -58.41750 28 ft 13 kts 119°
2026-04-19 07:39 -34.55772 -58.41664 27 ft 7 kts 116°
2026-04-19 07:39 -34.55781 -58.41604 24 ft 8 kts 67°
2026-04-19 07:40 -34.55734 -58.41585 28 ft 7 kts 333°
2026-04-19 07:40 -34.55704 -58.41629 24 ft 7 kts 304°
2026-04-19 07:40 -34.55684 -58.41665 26 ft 4 kts 306°
2026-04-19 07:40 -34.55667 -58.41666 24 ft 4 kts 26°
2026-04-19 07:41 -34.55644 -58.41644 28 ft 2 kts 34°
2026-04-19 07:41 -34.55631 -58.41634 24 ft 1 kts 34°
2026-04-19 07:41 -34.55630 -58.41633 24 ft 0 kts 34°